Time,TemperatureF,DewpointF,PressureIn,WindDirection,WindDirectionDegrees,WindSpeedMPH,WindSpeedGustMPH,Humidity,HourlyPrecipIn,Conditions,Clouds,dailyrainin,SoftwareType,DateUTC
2013-09-20 00:02:00,61.2,60.0,30.10,SSE,153,0.0,0.0,95,0.00,,,0.00,weatherlink.com 1.10,2013-09-20 04:02:00,
2013-09-20 00:32:00,61.8,60.0,30.10,SSE,153,0.0,0.0,95,0.00,,,0.00,weatherlink.com 1.10,2013-09-20 04:32:00,
2013-09-20 00:47:00,61.8,60.0,30.10,SSE,153,0.0,0.0,95,0.00,,,0.00,weatherlink.com 1.10,2013-09-20 04:47:00,
2013-09-20 01:02:00,61.8,60.0,30.10,SSE,153,0.0,0.0,95,0.00,,,0.00,weatherlink.com 1.10,2013-09-20 05:02:00,
2013-09-20 01:17:00,62.0,61.0,30.10,SSE,153,0.0,0.0,95,0.00,,,0.00,weatherlink.com 1.10,2013-09-20 05:17:00,
2013-09-20 01:32:00,62.1,61.0,30.10,SSE,153,0.0,0.0,95,0.00,,,0.00,weatherlink.com 1.10,2013-09-20 05:32:00,
2013-09-20 01:47:00,62.3,61.0,30.10,SSE,153,0.0,0.0,95,0.00,,,0.00,weatherlink.com 1.10,2013-09-20 05:47:00,
2013-09-20 02:18:00,62.3,61.0,30.09,SSE,153,0.0,1.0,95,0.00,,,0.00,weatherlink.com 1.10,2013-09-20 06:18:00,
2013-09-20 02:33:00,62.4,61.0,30.09,SSE,153,0.0,0.0,95,0.00,,,0.00,weatherlink.com 1.10,2013-09-20 06:33:00,
2013-09-20 03:03:00,62.8,61.0,30.09,South,189,0.0,2.0,95,0.00,,,0.00,weatherlink.com 1.10,2013-09-20 07:03:00,
2013-09-20 03:18:00,62.9,62.0,30.08,South,189,0.0,0.0,95,0.02,,,0.02,weatherlink.com 1.10,2013-09-20 07:18:00,
2013-09-20 03:32:00,62.8,61.0,30.08,South,189,0.0,1.0,95,0.02,,,0.02,weatherlink.com 1.10,2013-09-20 07:32:00,
2013-09-20 04:18:00,63.2,62.0,30.08,South,189,0.0,0.0,96,0.00,,,0.02,weatherlink.com 1.10,2013-09-20 08:18:00,
2013-09-20 04:33:00,63.3,62.0,30.08,South,189,0.0,0.0,96,0.00,,,0.02,weatherlink.com 1.10,2013-09-20 08:33:00,
2013-09-20 05:03:00,63.4,62.0,30.08,South,189,0.0,0.0,96,0.00,,,0.02,weatherlink.com 1.10,2013-09-20 09:03:00,
2013-09-20 05:18:00,63.6,62.0,30.08,SSE,155,1.0,3.0,95,0.00,,,0.02,weatherlink.com 1.10,2013-09-20 09:18:00,
2013-09-20 05:33:00,63.8,62.0,30.08,SSE,155,1.0,2.0,95,0.00,,,0.02,weatherlink.com 1.10,2013-09-20 09:33:00,
2013-09-20 05:48:00,63.8,62.0,30.08,SSE,168,1.0,4.0,95,0.01,,,0.03,weatherlink.com 1.10,2013-09-20 09:48:00,
2013-09-20 06:04:00,63.8,62.0,30.08,SSE,159,0.0,2.0,95,0.01,,,0.03,weatherlink.com 1.10,2013-09-20 10:04:00,
2013-09-20 06:18:00,63.7,62.0,30.07,SE,145,1.0,3.0,95,0.01,,,0.03,weatherlink.com 1.10,2013-09-20 10:18:00,
2013-09-20 06:33:00,63.7,62.0,30.08,ESE,120,2.0,2.0,95,0.01,,,0.03,weatherlink.com 1.10,2013-09-20 10:33:00,
2013-09-20 06:48:00,63.7,62.0,30.08,SE,125,0.0,2.0,95,0.00,,,0.03,weatherlink.com 1.10,2013-09-20 10:48:00,
2013-09-20 07:03:00,63.7,62.0,30.08,ESE,119,1.0,2.0,95,0.00,,,0.03,weatherlink.com 1.10,2013-09-20 11:03:00,
2013-09-20 07:18:00,63.5,62.0,30.07,ESE,114,2.0,4.0,95,0.00,,,0.03,weatherlink.com 1.10,2013-09-20 11:18:00,
2013-09-20 07:33:00,63.4,62.0,30.08,SE,143,1.0,3.0,95,0.00,,,0.03,weatherlink.com 1.10,2013-09-20 11:33:00,
2013-09-20 07:48:00,63.5,62.0,30.09,SE,144,0.0,2.0,95,0.00,,,0.03,weatherlink.com 1.10,2013-09-20 11:48:00,
2013-09-20 08:03:00,63.6,63.0,30.08,SE,124,2.0,3.0,96,0.00,,,0.03,weatherlink.com 1.10,2013-09-20 12:03:00,
2013-09-20 08:18:00,63.8,62.0,30.08,ESE,117,0.0,4.0,95,0.00,,,0.03,weatherlink.com 1.10,2013-09-20 12:18:00,
2013-09-20 08:33:00,64.1,63.0,30.08,SSE,155,2.0,2.0,95,0.00,,,0.03,weatherlink.com 1.10,2013-09-20 12:33:00,
2013-09-20 08:48:00,64.7,63.0,30.08,SE,137,1.0,4.0,95,0.00,,,0.03,weatherlink.com 1.10,2013-09-20 12:48:00,
2013-09-20 09:03:00,65.3,64.0,30.08,ESE,108,2.0,4.0,94,0.00,,,0.03,weatherlink.com 1.10,2013-09-20 13:03:00,
2013-09-20 09:18:00,66.1,64.0,30.08,East,84,1.0,4.0,94,0.00,,,0.03,weatherlink.com 1.10,2013-09-20 13:18:00,
2013-09-20 10:05:00,68.2,66.0,30.08,East,92,0.0,3.0,92,0.00,,,0.03,weatherlink.com 1.10,2013-09-20 14:05:00,
2013-09-20 10:19:00,68.8,66.0,30.08,SE,134,3.0,4.0,90,0.00,,,0.03,weatherlink.com 1.10,2013-09-20 14:19:00,
2013-09-20 10:34:00,69.2,66.0,30.08,SE,136,5.0,5.0,89,0.00,,,0.03,weatherlink.com 1.10,2013-09-20 14:34:00,
2013-09-20 11:04:00,71.1,66.0,30.08,SSW,210,3.0,5.0,85,0.00,,,0.03,weatherlink.com 1.10,2013-09-20 15:04:00,
2013-09-20 11:19:00,71.9,67.0,30.07,SE,143,2.0,6.0,83,0.00,,,0.03,weatherlink.com 1.10,2013-09-20 15:19:00,
2013-09-20 11:34:00,72.2,67.0,30.07,SE,144,2.0,8.0,83,0.00,,,0.03,weatherlink.com 1.10,2013-09-20 15:34:00,
2013-09-20 11:49:00,72.5,67.0,30.07,ESE,113,4.0,6.0,82,0.00,,,0.03,weatherlink.com 1.10,2013-09-20 15:49:00,
2013-09-20 12:04:00,72.5,67.0,30.06,SE,144,1.0,6.0,82,0.00,,,0.03,weatherlink.com 1.10,2013-09-20 16:04:00,
2013-09-20 12:19:00,72.0,67.0,30.06,SE,136,3.0,7.0,83,0.00,,,0.03,weatherlink.com 1.10,2013-09-20 16:19:00,
2013-09-20 12:34:00,71.6,67.0,30.06,SE,130,3.0,7.0,84,0.00,,,0.03,weatherlink.com 1.10,2013-09-20 16:34:00,
2013-09-20 12:49:00,71.8,67.0,30.06,South,178,3.0,6.0,84,0.00,,,0.03,weatherlink.com 1.10,2013-09-20 16:49:00,
2013-09-20 13:04:00,71.4,66.0,30.06,SSE,156,0.0,5.0,83,0.00,,,0.03,weatherlink.com 1.10,2013-09-20 17:04:00,
2013-09-20 13:19:00,71.5,67.0,30.05,SSE,162,2.0,6.0,84,0.00,,,0.03,weatherlink.com 1.10,2013-09-20 17:19:00,
2013-09-20 13:34:00,71.5,67.0,30.05,SSE,168,2.0,4.0,85,0.00,,,0.03,weatherlink.com 1.10,2013-09-20 17:34:00,
2013-09-20 13:49:00,71.5,67.0,30.04,SSE,149,7.0,7.0,84,0.00,,,0.03,weatherlink.com 1.10,2013-09-20 17:49:00,
2013-09-20 14:19:00,72.4,67.0,30.03,SSE,162,1.0,6.0,83,0.00,,,0.03,weatherlink.com 1.10,2013-09-20 18:19:00,
2013-09-20 14:34:00,72.8,67.0,30.03,SE,127,2.0,5.0,81,0.00,,,0.03,weatherlink.com 1.10,2013-09-20 18:34:00,
2013-09-20 14:49:00,73.1,67.0,30.02,SE,137,3.0,6.0,81,0.00,,,0.03,weatherlink.com 1.10,2013-09-20 18:49:00,
2013-09-20 15:04:00,72.6,67.0,30.02,South,180,2.0,5.0,82,0.00,,,0.03,weatherlink.com 1.10,2013-09-20 19:04:00,
2013-09-20 15:49:00,72.2,67.0,30.01,SSE,167,1.0,6.0,83,0.00,,,0.03,weatherlink.com 1.10,2013-09-20 19:49:00,
2013-09-20 16:04:00,72.3,67.0,30.00,SE,141,3.0,6.0,84,0.00,,,0.03,weatherlink.com 1.10,2013-09-20 20:04:00,
2013-09-20 16:20:00,72.4,67.0,30.00,SE,131,1.0,4.0,83,0.00,,,0.03,weatherlink.com 1.10,2013-09-20 20:20:00,
2013-09-20 16:35:00,72.4,67.0,29.99,SSE,148,3.0,4.0,82,0.00,,,0.03,weatherlink.com 1.10,2013-09-20 20:35:00,
2013-09-20 16:50:00,72.6,67.0,29.99,ESE,110,2.0,7.0,81,0.00,,,0.03,weatherlink.com 1.10,2013-09-20 20:50:00,
2013-09-20 17:05:00,72.8,67.0,29.99,ESE,120,2.0,4.0,81,0.00,,,0.03,weatherlink.com 1.10,2013-09-20 21:05:00,
2013-09-20 17:20:00,72.5,67.0,29.99,SSE,152,3.0,5.0,82,0.00,,,0.03,weatherlink.com 1.10,2013-09-20 21:20:00,
2013-09-20 17:35:00,72.1,67.0,29.99,SSE,157,3.0,4.0,83,0.00,,,0.03,weatherlink.com 1.10,2013-09-20 21:35:00,
2013-09-20 17:50:00,71.9,67.0,29.99,SSE,154,3.0,5.0,84,0.00,,,0.03,weatherlink.com 1.10,2013-09-20 21:50:00,
2013-09-20 18:05:00,71.6,67.0,30.00,SSE,152,4.0,5.0,85,0.00,,,0.03,weatherlink.com 1.10,2013-09-20 22:05:00,
2013-09-20 18:20:00,71.5,67.0,30.00,SE,138,3.0,3.0,86,0.00,,,0.03,weatherlink.com 1.10,2013-09-20 22:20:00,
2013-09-20 18:35:00,71.2,67.0,29.99,SSE,167,1.0,5.0,87,0.00,,,0.03,weatherlink.com 1.10,2013-09-20 22:35:00,
2013-09-20 18:49:00,70.9,67.0,29.99,SSE,154,1.0,5.0,87,0.00,,,0.03,weatherlink.com 1.10,2013-09-20 22:49:00,
2013-09-20 19:05:00,70.6,67.0,29.99,SSE,158,1.0,3.0,88,0.00,,,0.03,weatherlink.com 1.10,2013-09-20 23:05:00,
2013-09-20 19:20:00,70.2,67.0,29.99,SSE,158,0.0,2.0,89,0.00,,,0.03,weatherlink.com 1.10,2013-09-20 23:20:00,
2013-09-20 19:35:00,69.8,67.0,29.99,SSE,158,0.0,0.0,90,0.00,,,0.03,weatherlink.com 1.10,2013-09-20 23:35:00,
2013-09-20 19:50:00,69.2,67.0,30.00,SSE,158,0.0,0.0,91,0.00,,,0.03,weatherlink.com 1.10,2013-09-20 23:50:00,
2013-09-20 20:04:00,68.8,66.0,30.00,SSE,158,0.0,0.0,92,0.00,,,0.03,weatherlink.com 1.10,2013-09-21 00:04:00,
2013-09-20 20:20:00,68.4,66.0,30.00,SSE,158,0.0,0.0,93,0.00,,,0.03,weatherlink.com 1.10,2013-09-21 00:20:00,
2013-09-20 20:34:00,68.1,66.0,30.00,SSE,158,0.0,0.0,93,0.00,,,0.03,weatherlink.com 1.10,2013-09-21 00:34:00,
2013-09-20 20:50:00,67.6,66.0,30.00,SSE,158,0.0,0.0,94,0.00,,,0.03,weatherlink.com 1.10,2013-09-21 00:50:00,
2013-09-20 21:05:00,67.0,65.0,30.00,SSE,158,0.0,0.0,94,0.00,,,0.03,weatherlink.com 1.10,2013-09-21 01:05:00,
2013-09-20 21:20:00,66.4,65.0,30.00,SSE,158,0.0,0.0,94,0.00,,,0.03,weatherlink.com 1.10,2013-09-21 01:20:00,
2013-09-20 21:35:00,66.1,65.0,30.00,SSE,158,0.0,0.0,95,0.00,,,0.03,weatherlink.com 1.10,2013-09-21 01:35:00,
2013-09-20 21:50:00,65.6,64.0,30.00,SSE,158,0.0,0.0,95,0.00,,,0.03,weatherlink.com 1.10,2013-09-21 01:50:00,
2013-09-20 22:05:00,65.0,64.0,30.00,SSE,158,0.0,0.0,95,0.00,,,0.03,weatherlink.com 1.10,2013-09-21 02:05:00,
2013-09-20 22:20:00,64.7,63.0,29.99,SSE,158,0.0,0.0,95,0.00,,,0.03,weatherlink.com 1.10,2013-09-21 02:20:00,
2013-09-20 22:35:00,64.1,63.0,29.99,SSE,158,0.0,0.0,95,0.00,,,0.03,weatherlink.com 1.10,2013-09-21 02:35:00,
2013-09-20 22:50:00,64.0,63.0,29.99,SSE,158,0.0,0.0,96,0.00,,,0.03,weatherlink.com 1.10,2013-09-21 02:50:00,
2013-09-20 23:05:00,63.5,62.0,29.98,SSE,158,0.0,0.0,95,0.00,,,0.03,weatherlink.com 1.10,2013-09-21 03:05:00,
2013-09-20 23:20:00,63.1,62.0,29.98,SSE,158,0.0,0.0,96,0.00,,,0.03,weatherlink.com 1.10,2013-09-21 03:20:00,
2013-09-20 23:35:00,62.9,62.0,29.98,SSE,158,0.0,0.0,96,0.00,,,0.03,weatherlink.com 1.10,2013-09-21 03:35:00,
2013-09-20 23:50:00,62.6,62.0,29.98,SSE,158,0.0,0.0,96,0.00,,,0.03,weatherlink.com 1.10,2013-09-21 03:50:00,